EHI
0 1 2 1 1 1 1 1 2 3 3 3 3 3 2 1 0 0 0 1 3 6 7 7 3 1 1 1 1 1 1 1 0 1 2 3 3 3 3 3 3 3 4
0 1 2 1 0 0 0 1 2 3 3 3 3 3 3 1 0 0 0 0 2 4 5 5 3 1 0 1 0 0 0 0 0 1 2 3 3 3 3 3 3 3 3
0 1 1 1 0 0 0 0 1 1 2 3 3 3 3 2 1 1 1 0 1 3 4 3 3 1 1 1 0 0 0 0 1 2 2 1 1 2 2 3 3 3 2
0 0 0 0 0 0 0 0 0 1 1 2 3 3 3 3 3 2 2 1 1 2 3 3 3 2 1 0 0 0 0 0 1 1 1 0 0 1 1 1 3 3 2
0 0 0 0 0 0 0 0 0 1 1 1 2 3 3 3 3 3 2 1 0 1 2 2 2 2 1 0 0 0 0 0 0 0 0 0 0 0 0 1 2 2 1
0 0 0 0 0 0 0 0 0 1 0 0 2 3 3 3 3 2 1 0 0 0 1 1 1 1 1 1 1 0 0 0 0 0 0 0 0 0 0 0 1 1 0
0 0 0 0 0 0 0 0 1 1 1 1 2 3 3 2 2 1 0 0 0 0 0 0 0 0 1 1 1 0 0 1 0 0 0 0 0 0 0 0 0 0 0
0 0 0 0 1 1 1 0 1 2 2 2 2 3 2 1 1 0 0 0 0 0 0 0 0 0 1 1 0 0 0 0 0 0 0 0 0 0 0 0 0 0 0
0 0 0 0 1 1 1 0 1 2 2 1 1 2 2 1 0 0 0 0 0 0 0 0 0 0 1 0 0 1 0 0 0 0 0 0 0 0 0 0 0 0 0
0 0 0 0 0 0 0 0 0 1 1 0 1 1 1 1 0 0 0 0 0 0 0 0 0 0 0 0 0 0 0 0 0 0 0 0 0 0 0 0 0 0 0
0 0 0 0 0 0 0 0 0 0 0 0 0 0 0 0 0 0 0 0 0 0 0 0 0 0 0 0 0 0 0 0 0 0 0 0 0 0 0 0 0 0 0
0 0 0 0 0 0 0 0 0 0 0 0 0 0 0 0 0 0 0 0 0 0 1 0 0 0 0 0 0 0 0 0 0 0 0 0 0 1 1 0 0 0 0
0 0 0 0 0 0 0 0 0 0 0 0 0 0 0 0 0 0 0 0 0 0 0 0 0 0 0 0 0 0 0 0 0 0 0 0 1 2 2 2 2 1 1
0 0 0 0 0 0 0 0 0 0 0 0 0 0 0 0 0 0 0 0 0 0 0 0 0 0 0 0 0 0 0 0 0 0 0 1 2 2 2 3 3 3 2
0 0 0 0 0 0 0 0 0 0 0 0 0 0 0 0 0 0 0 0 0 0 0 0 0 0 0 0 0 0 0 0 0 0 0 1 2 2 2 3 3 3 3
0 0 0 0 0 0 0 0 0 0 0 0 0 0 0 0 0 0 0 0 0 0 0 0 0 0 0 0 0 0 0 0 0 0 0 1 2 2 1 3 4 4 4
0 0 0 0 0 0 0 0 0 0 0 0 0 0 0 0 0 0 0 0 0 0 0 0 0 0 0 0 0 0 0 0 0 0 0 0 1 1 1 3 5 5 5
1 0 0 0 0 0 0 0 0 0 0 0 0 0 0 0 0 0 0 0 0 0 0 0 0 0 0 0 0 0 0 0 0 0 0 0 0 0 0 2 3 4 4
2 1 0 0 0 0 0 0 0 0 0 0 0 0 0 0 0 0 0 0 0 0 0 0 0 0 0 0 0 0 0 0 0 0 0 0 0 0 0 1 2 2 2
2 1 0 0 0 0 0 0 0 0 0 0 0 0 0 0 0 0 0 0 0 0 0 0 0 0 0 0 0 0 0 0 0 0 0 0 0 0 0 0 1 1 1
1 0 0 0 0 0 0 0 0 0 0 0 0 0 0 0 0 0 0 0 0 0 0 0 0 0 0 0 0 0 0 0 0 0 0 0 0 0 0 0 0 0 0
0 1 1 1 0 0 0 0 0 0 0 0 0 0 0 0 0 0 0 0 0 0 0 0 0 0 0 0 0 0 0 0 0 0 0 0 0 0 0 0 0 0 0
1 2 2 1 0 0 0 0 0 0 0 0 0 0 0 0 0 0 0 0 0 0 0 0 0 0 0 0 0 0 0 0 0 0 0 0 0 0 0 0 0 0 0
3 3 2 1 1 1 1 1 1 1 0 0 0 0 0 0 0 0 0 0 0 0 0 0 0 0 0 0 0 0 0 0 0 0 0 0 0 0 0 0 0 0 0
4 4 4 3 2 2 3 3 3 2 1 0 0 0 0 0 1 0 0 0 0 0 0 0 0 0 0 0 0 0 0 0 0 0 0 0 0 0 0 0 0 0 0
5 6 6 5 3 3 4 4 4 2 1 0 0 0 0 0 1 0 0 0 0 0 0 0 0 0 0 0 0 0 0 0 0 0 0 0 0 0 0 0 0 0 0
Wind_Speed
1 1 5 8 9 10 11 11 12 13 12 13 13 13 13 13 13 12 12 12 11 11 11 11 10 9 9 8 7 6 7 8 9 9 9 9 8 8 9 9 9 7 10
3 3 7 8 9 10 11 11 11 12 12 12 12 13 13 12 12 11 11 10 10 10 10 10 9 9 8 7 6 7 7 7 8 8 8 7 7 7 7 8 8 6 10
5 4 6 8 9 10 10 10 11 11 11 11 12 12 12 11 11 11 10 9 9 9 9 9 8 8 8 7 6 6 7 7 7 7 6 4 4 6 7 8 8 8 9
6 4 5 9 9 9 10 10 10 10 11 11 11 11 11 11 10 11 10 9 9 9 9 8 7 7 7 7 7 6 6 6 6 5 3 2 3 5 6 6 8 8 8
5 4 5 9 9 9 9 9 9 10 10 10 11 10 10 10 10 10 9 8 8 8 8 7 6 6 5 6 6 6 6 5 5 4 3 2 1 4 5 6 6 8 8
5 3 4 9 9 9 9 9 9 9 9 9 9 9 9 9 9 9 8 8 7 7 6 6 6 5 5 5 5 5 5 4 3 3 2 2 2 3 5 6 6 7 8
4 3 3 7 8 8 8 8 8 8 8 8 8 8 8 8 8 8 7 7 6 5 5 5 6 6 5 5 5 5 5 4 3 2 2 2 2 3 4 5 6 6 7
4 3 3 6 8 8 8 8 7 7 7 7 7 7 7 6 6 7 6 6 5 5 5 6 6 5 5 5 4 5 5 4 3 2 2 2 2 3 4 4 5 5 6
4 3 2 2 4 6 6 7 6 6 6 6 6 6 6 6 6 6 6 6 5 5 5 5 5 5 4 4 4 4 4 4 3 1 2 1 3 3 4 4 4 4 5
3 3 2 2 2 2 3 5 5 5 5 5 5 5 6 5 5 5 4 4 5 4 4 4 4 4 4 4 4 4 3 3 2 2 1 1 3 3 3 3 4 4 4
3 2 2 2 2 2 2 2 3 4 4 4 3 4 4 3 3 2 2 4 4 4 3 3 3 4 4 3 3 4 3 2 2 1 1 1 2 2 3 3 4 4 4
3 2 2 2 2 1 1 2 1 2 2 2 2 2 2 2 2 2 2 3 3 3 3 4 4 4 3 2 2 3 2 2 1 1 0 1 1 1 3 3 3 4 4
3 2 2 2 2 2 1 1 1 1 1 1 2 2 2 2 2 2 2 2 3 3 2 3 3 2 2 2 1 1 1 1 1 1 1 1 1 1 2 2 2 3 3
3 3 2 2 2 2 1 1 1 1 1 1 1 2 1 1 1 1 1 1 1 1 1 2 1 2 2 2 2 1 1 1 1 0 1 0 1 1 1 2 2 3 3
3 3 3 3 3 2 2 1 1 1 1 1 1 1 2 1 1 1 1 1 1 1 1 1 1 2 2 2 1 1 1 1 1 1 1 1 1 1 1 2 2 2 3
4 3 3 3 3 3 2 1 1 1 1 1 1 1 2 1 1 1 0 1 1 1 1 1 1 1 1 1 1 1 1 1 1 1 1 1 1 0 1 1 1 1 2
4 4 4 4 3 3 2 2 1 1 1 1 1 1 2 2 2 1 1 0 0 1 1 1 1 1 1 2 2 1 1 1 0 0 0 0 1 1 0 1 1 2 2
4 4 4 4 4 3 2 2 1 1 1 1 1 1 2 2 2 2 1 1 0 1 1 1 1 1 1 1 1 1 1 0 0 0 0 0 0 1 1 1 2 3 3
5 4 4 3 4 3 2 1 1 1 1 1 1 1 1 2 2 2 1 1 1 1 1 1 1 1 1 1 0 1 1 0 1 1 1 1 1 1 1 2 2 2 3
4 4 3 3 3 3 2 1 1 1 0 0 1 1 2 2 2 2 1 1 1 1 1 1 1 1 1 0 1 1 1 1 0 1 1 1 1 1 1 2 1 2 2
4 4 4 3 3 3 2 2 1 1 1 0 1 1 1 2 2 2 1 1 2 1 1 1 1 1 1 1 1 2 2 1 0 0 1 1 1 1 1 2 1 1 1
5 5 4 4 3 3 2 2 1 1 1 1 0 0 1 1 2 2 2 2 2 2 1 1 2 1 1 1 2 1 2 3 2 1 0 1 1 1 2 2 1 1 1
6 6 5 4 4 3 3 2 2 2 1 1 1 0 1 1 1 2 2 2 2 2 2 2 2 2 1 0 1 2 2 1 2 2 1 1 1 1 1 2 2 2 2
7 6 5 5 4 4 4 3 3 2 1 1 1 1 1 0 0 1 2 2 2 2 2 2 2 2 2 1 0 0 1 2 1 1 2 2 1 1 2 2 2 2 2
6 6 5 5 4 4 4 5 4 2 2 1 1 0 0 0 0 1 1 2 2 2 2 2 2 2 2 2 1 1 1 1 1 1 2 2 2 2 1 2 1 1 1
5 5 6 5 5 4 4 4 4 4 3 2 1 1 1 0 0 0 1 1 2 2 2 2 2 2 2 2 2 1 2 2 2 2 2 2 2 2 2 1 1 1 1
Wind_Direction
137 136 128 115 115 113 110 106 109 112 113 115 117 120 123 124 125 125 126 127 127 125 122 120 120 122 122 119 115 110 114 121 127 131 132 135 136 138 141 141 138 135 138
132 131 128 116 115 113 111 109 109 114 116 116 116 118 120 122 124 124 124 125 124 124 123 123 122 122 120 116 113 109 110 116 122 126 131 134 137 140 143 144 147 145 148
117 121 128 121 119 117 115 115 114 116 118 118 118 118 119 120 120 121 122 121 120 121 120 119 118 119 117 114 111 110 112 118 121 125 126 125 138 144 150 155 156 153 155
118 113 126 126 124 123 122 120 118 118 119 120 120 119 119 119 120 120 120 119 118 117 116 116 115 114 116 113 109 112 117 119 125 127 114 122 136 141 148 159 161 157 159
110 109 130 128 126 126 126 125 123 119 119 119 119 120 122 122 122 121 120 120 118 117 116 116 113 109 108 108 109 111 117 118 120 107 103 109 117 148 156 165 161 161 163
111 111 129 131 127 126 128 126 121 117 116 114 116 120 121 121 120 120 120 118 115 116 117 116 109 104 104 108 109 106 112 112 100 95 108 123 134 155 161 167 168 166 169
120 115 123 133 131 129 128 125 121 120 119 117 118 119 118 118 117 116 114 112 108 105 106 104 104 104 104 105 103 107 111 111 101 108 123 132 160 172 164 165 167 168 170
122 117 117 139 137 134 130 125 124 122 119 115 114 112 115 118 117 116 115 113 106 101 98 96 105 105 104 101 102 106 109 110 97 100 125 142 178 177 168 169 167 159 155
105 105 97 105 125 134 135 132 131 128 122 117 112 107 112 114 111 106 103 103 104 101 96 96 102 100 97 95 100 107 106 100 80 76 116 142 171 171 164 163 161 158 160
97 99 98 84 75 88 112 137 140 136 129 121 116 108 103 98 95 96 89 97 99 95 96 105 103 95 90 93 106 107 101 85 71 64 73 140 158 164 163 163 162 163 165
124 102 101 98 94 88 102 138 130 134 126 116 106 104 82 59 54 73 84 90 89 89 95 100 98 90 78 73 93 96 84 73 76 57 58 133 158 172 173 164 163 162 162
155 148 127 124 113 102 119 84 63 67 68 71 73 76 65 58 44 56 64 65 63 69 78 72 68 69 61 51 65 77 71 76 64 58 59 122 130 164 167 152 166 171 167
158 162 148 149 135 122 105 103 77 66 60 64 81 84 73 55 45 39 39 27 27 39 46 48 48 52 57 59 62 79 86 79 48 28 27 102 105 121 139 135 143 160 157
154 167 154 152 138 129 115 112 114 110 103 100 105 116 107 78 49 39 38 20 26 34 42 50 51 46 52 58 76 90 89 78 32 17 6 35 93 111 140 149 154 164 162
162 170 165 156 155 150 133 142 126 133 142 142 137 144 144 141 133 73 36 30 25 41 57 63 60 47 42 50 67 95 97 88 55 45 20 20 63 122 156 170 172 170 167
176 177 166 163 162 152 151 151 147 145 155 161 167 169 163 155 152 132 68 29 21 42 48 86 85 62 44 57 50 59 70 78 42 37 22 2 1 82 111 141 170 159 163
179 174 171 172 158 157 165 176 168 165 158 180 186 177 176 171 165 156 141 43 5 81 74 77 61 60 65 66 51 42 46 35 70 46 37 2 343 350 292 206 204 195 186
172 174 184 179 162 165 169 174 166 168 164 188 183 184 189 184 175 160 160 202 155 115 102 92 69 63 49 51 42 16 39 53 149 200 141 218 302 315 310 266 226 214 208
178 176 178 169 163 165 162 163 167 153 166 175 167 186 198 192 179 168 174 184 144 115 103 115 94 112 95 54 44 27 18 22 256 240 218 233 240 259 290 298 273 244 230
168 163 164 160 159 149 136 127 102 93 152 156 183 197 198 196 182 166 165 168 146 125 105 109 123 103 121 101 57 40 6 335 270 266 253 249 250 254 268 289 296 286 260
165 166 170 164 159 142 138 151 147 187 228 228 218 201 199 196 189 168 171 152 148 144 146 133 131 110 79 98 81 26 9 14 357 265 257 251 261 266 267 269 273 278 294
182 179 178 178 169 166 164 159 159 158 195 217 266 190 199 190 185 181 169 167 156 144 131 133 136 122 91 91 118 88 8 353 355 359 319 234 263 274 273 272 267 266 278
192 187 186 182 172 170 156 115 89 66 37 26 2 321 265 194 186 165 173 173 168 162 169 180 167 151 158 100 120 137 134 255 312 332 340 332 309 281 282 284 266 266 259
199 185 182 178 173 170 155 150 153 163 188 221 216 237 321 19 202 178 179 178 170 166 175 202 173 164 156 176 179 119 156 163 164 321 325 328 327 304 297 289 290 275 260
191 184 181 176 180 175 167 171 169 175 186 183 163 138 38 353 264 182 184 178 176 176 185 193 173 172 170 173 177 161 131 103 137 177 284 319 327 301 285 274 283 286 279
180 177 176 177 189 184 179 177 177 181 180 171 197 199 216 240 303 204 176 174 185 185 191 190 183 179 179 172 176 173 164 167 183 181 219 270 297 303 304 287 278 280 277